GFSGL_500_spd_243.txt.gz
Wind_Speed
27 26 28 27 26 29 25 24 24 25 27 26 25 24 24 23 22 22 22 20 22 22 20 21 21 21 23 24 24 27 29 31 31 32 35 32 30 29 27 29 32 33 32
26 26 25 28 28 28 29 27 28 28 28 28 26 26 25 26 26 26 26 26 25 25 25 24 25 26 25 27 28 30 31 33 32 28 29 28 27 27 27 26 29 33 35
24 24 25 25 26 29 31 31 30 31 31 31 30 30 29 29 28 27 28 28 28 30 30 30 29 29 29 30 31 32 33 31 30 28 22 23 26 32 31 30 30 32 33
23 27 25 25 27 28 28 29 31 31 33 33 32 31 31 31 31 30 29 30 30 31 32 33 32 33 32 32 32 31 32 31 31 28 25 26 28 32 33 32 34 37 37
15 18 23 27 29 30 30 29 30 30 30 32 33 32 33 33 32 31 31 30 29 28 27 28 29 30 30 30 29 31 33 33 31 32 31 29 31 33 33 32 34 35 36
16 15 19 23 27 30 31 32 32 31 33 33 34 35 36 36 36 35 35 34 34 33 31 30 29 30 30 31 31 34 36 37 34 33 33 33 32 31 32 33 34 35 37
23 23 23 26 24 24 26 31 34 32 34 34 35 37 37 38 39 38 38 38 37 36 35 35 35 34 35 34 34 37 38 38 38 38 37 35 33 32 36 36 36 38 39
24 29 35 30 28 32 29 30 28 29 28 28 29 31 36 38 39 40 41 41 40 38 36 35 36 34 34 36 36 39 39 39 37 36 35 31 31 30 34 35 35 34 34
23 27 32 34 34 37 34 39 39 34 33 28 32 35 35 33 35 41 42 41 40 39 37 37 37 37 36 38 39 40 39 37 36 35 33 32 32 33 35 35 35 36 37
31 31 34 36 46 29 39 45 49 36 36 31 27 28 30 30 34 40 41 40 38 36 36 35 34 35 35 36 38 38 37 34 34 32 31 33 32 34 34 34 40 37 42
37 41 45 40 40 39 47 47 58 43 37 33 30 28 29 27 30 35 35 34 33 32 32 32 32 33 32 34 37 38 37 34 33 33 32 30 32 31 30 29 30 39 46
44 46 46 42 44 45 47 45 59 42 45 39 34 33 37 32 33 35 35 32 34 31 29 28 31 29 29 30 32 36 37 34 31 30 28 25 23 20 23 27 33 39 44
43 40 42 42 45 47 47 41 47 49 34 36 35 35 34 36 41 34 31 34 36 31 25 25 30 29 28 29 33 33 36 34 33 28 23 21 24 23 28 31 30 40 43
48 47 48 49 46 49 45 41 37 42 36 37 35 38 39 41 40 38 34 33 33 28 28 28 31 29 27 28 28 28 28 31 30 31 26 26 28 29 32 33 35 40 41
54 56 56 56 53 55 50 37 37 38 37 28 33 29 32 30 29 30 32 34 36 36 33 31 33 31 30 26 24 24 26 34 33 30 29 28 33 33 34 34 36 38 40
61 60 60 61 58 56 52 46 42 40 36 37 43 40 35 36 36 38 38 38 38 37 37 36 37 36 34 28 24 23 26 26 24 34 37 34 34 34 32 37 37 40 43
64 63 61 60 61 62 60 55 52 48 51 46 43 43 45 45 47 47 44 43 43 43 42 43 40 37 35 32 27 25 27 29 30 32 35 39 42 39 36 37 39 44 42
66 65 64 65 65 61 57 60 56 56 58 56 56 56 56 55 53 54 52 47 45 43 43 43 42 44 39 36 35 32 29 28 31 34 35 36 40 47 32 39 42 43 41
62 63 63 62 61 60 60 61 64 62 62 55 62 65 64 62 59 57 55 54 52 51 49 47 44 46 47 45 43 42 41 42 46 44 41 39 40 43 44 46 42 43 42
60 61 62 63 64 63 63 64 65 63 64 62 60 62 65 68 70 63 63 59 60 58 55 54 53 51 50 50 54 50 50 53 57 48 50 48 43 46 48 47 44 42 42
61 63 63 65 64 66 65 63 63 62 64 65 66 63 59 64 77 78 74 71 69 67 67 65 61 58 61 62 59 59 61 64 67 58 55 48 45 45 49 49 47 43 40
56 58 61 62 65 65 64 64 66 68 67 62 57 59 63 59 69 69 55 66 74 73 72 73 68 66 63 57 59 58 55 56 54 50 48 50 50 48 49 47 47 48 46
52 56 57 56 54 54 51 52 53 53 55 59 62 62 57 52 51 58 61 63 55 68 63 62 64 67 68 71 69 64 62 54 50 48 47 46 47 46 46 44 44 44 46
57 56 57 56 57 57 56 54 53 51 52 52 51 54 53 51 49 49 53 55 57 56 58 55 57 57 54 54 55 54 52 48 48 48 47 44 43 43 41 36 35 37 38
60 62 64 64 63 60 59 59 58 57 56 57 56 55 54 54 53 53 52 56 57 60 61 61 63 65 62 60 58 56 57 56 53 51 49 45 41 41 40 37 33 34 35
63 64 63 63 65 65 66 65 64 63 63 62 63 62 65 63 63 61 61 57 56 58 59 62 63 64 64 64 64 64 63 64 62 61 57 54 51 49 49 45 44 42 39

GFSGL_500_spd_249.txt.gz
Wind_Speed
25 27 26 26 25 25 23 21 21 17 15 19 20 19 19 18 19 20 20 20 19 19 18 17 17 18 19 21 21 23 24 25 21 23 27 28 27 31 35 36 37 37 39
26 20 22 25 24 24 25 25 24 23 20 20 21 22 22 21 21 21 20 21 21 20 21 21 21 21 22 24 25 26 26 28 27 20 23 26 27 32 35 38 40 42 41
25 24 24 23 25 24 26 26 27 25 25 23 24 24 25 26 26 26 25 25 24 24 24 23 23 23 24 26 26 28 29 29 29 27 23 26 28 33 35 39 40 40 40
26 25 24 24 25 26 27 27 28 27 25 26 26 26 28 30 29 29 30 30 30 28 28 27 26 26 26 26 27 27 27 28 29 30 30 31 32 36 38 37 36 39 37
27 27 26 27 28 28 27 27 28 29 27 27 28 28 28 29 31 31 31 32 32 32 31 31 30 29 27 26 26 26 29 30 32 33 34 35 35 34 35 35 36 37 35
25 26 25 26 27 29 30 29 27 27 26 25 24 25 25 26 29 30 32 32 33 33 33 33 33 32 31 31 31 30 31 33 34 35 33 31 31 33 35 34 35 33 33
22 24 24 24 25 27 30 29 28 28 26 28 27 26 26 26 28 31 31 32 34 35 34 34 34 33 34 34 35 34 33 31 31 33 33 33 31 34 35 32 31 31 37
24 25 24 22 20 20 19 18 20 21 23 26 26 26 27 27 29 32 34 34 35 36 38 38 38 37 38 38 38 33 29 27 29 32 30 29 30 31 32 29 27 32 37
28 27 28 27 26 25 23 23 25 24 26 28 28 26 29 30 29 30 35 37 37 36 39 41 42 40 37 37 33 31 27 27 30 26 25 26 29 30 29 26 24 28 29
30 32 31 31 30 28 26 25 25 28 33 32 31 34 42 47 30 30 34 38 40 42 45 42 42 37 36 33 30 29 25 26 27 24 23 26 30 27 25 24 24 24 30
34 36 37 36 33 33 30 32 35 34 37 37 31 24 35 36 32 32 33 34 45 48 52 52 52 47 34 32 29 27 25 24 23 21 21 23 26 25 24 24 22 24 28
46 43 46 40 40 38 35 40 42 40 37 36 29 23 26 34 37 38 38 41 51 39 48 50 54 45 38 29 28 27 23 21 22 20 22 25 26 25 22 22 23 25 28
49 49 42 48 48 44 40 44 46 40 39 32 27 26 30 31 31 34 35 39 39 30 41 45 32 39 30 39 22 15 19 22 21 20 22 21 20 19 20 21 24 23 22
59 62 53 64 58 55 50 46 46 45 40 34 32 33 33 36 36 35 39 39 41 34 31 30 24 18 17 13 15 18 23 25 21 20 21 26 23 18 17 18 20 23 23
63 63 59 58 59 50 47 49 51 40 40 40 37 37 39 40 45 44 41 42 43 35 27 27 23 19 16 17 20 24 28 28 26 27 26 26 25 23 18 17 23 21 17
60 57 54 55 52 59 48 45 38 35 38 42 43 43 44 47 51 46 41 39 37 28 23 23 21 22 22 27 29 29 29 29 31 31 29 29 28 26 25 20 20 23 16
55 54 55 55 55 55 53 52 56 56 55 58 60 58 56 54 50 47 40 39 39 40 36 27 30 30 30 34 35 34 33 34 37 38 35 33 32 29 25 22 23 27 25
48 48 48 48 47 50 52 56 59 63 64 61 58 58 58 53 51 49 48 46 44 40 43 39 34 36 39 40 40 40 41 43 42 43 43 42 40 39 37 34 32 33 32
45 48 49 53 54 55 57 59 60 59 59 60 60 61 59 56 55 56 54 54 52 49 48 50 50 47 48 50 49 50 50 48 45 44 44 45 46 47 46 46 44 42 42
42 47 51 52 53 55 57 58 58 58 58 60 61 60 59 57 56 56 56 55 58 58 56 55 57 57 55 51 51 50 52 54 54 51 48 46 47 47 46 48 47 46 46
45 48 48 49 50 51 53 54 55 56 58 59 61 61 58 56 57 58 56 53 56 59 62 62 59 59 61 61 64 62 56 55 56 57 57 57 55 54 55 55 56 55 51
46 46 50 51 52 54 56 58 60 60 59 60 61 60 60 59 58 60 61 58 55 57 60 60 61 62 63 63 61 61 60 56 54 56 58 64 64 63 64 64 61 59 55
44 45 47 49 50 51 53 55 56 58 58 60 61 63 62 63 63 63 63 62 61 61 60 62 65 64 64 64 64 64 63 62 61 61 65 63 58 57 60 64 64 61 60
48 48 49 50 52 54 55 55 56 59 60 61 61 61 62 63 63 64 64 63 62 60 59 59 60 60 61 61 60 61 62 62 61 62 59 58 56 57 58 57 59 61 56
50 52 54 56 57 59 62 64 66 67 67 68 68 68 66 64 64 63 63 64 63 63 63 61 61 62 62 61 62 64 65 63 62 62 61 58 58 59 52 53 54 54 52
47 48 51 53 54 56 59 61 64 69 71 74 74 75 73 72 73 73 71 70 68 65 63 62 62 62 63 65 65 65 67 68 67 65 64 63 61 59 59 57 55 54 53

GFSGL_500_spd_252.txt.gz
Wind_Speed
20 24 25 26 26 24 23 22 20 18 17 18 17 20 19 21 20 22 22 22 23 21 20 21 21 21 21 22 22 24 25 25 22 24 29 32 32 33 34 37 39 40 41
24 23 22 24 25 25 26 26 25 23 23 23 20 21 23 24 24 25 24 23 25 26 26 25 26 25 25 27 28 28 30 31 29 26 27 29 31 32 34 36 38 39 40
28 27 26 24 21 26 27 27 27 25 25 26 25 24 25 27 27 27 26 25 26 27 27 28 27 28 28 30 30 30 31 31 31 28 24 27 29 32 33 37 36 38 38
30 28 27 26 25 25 28 30 28 29 28 28 29 29 28 28 29 29 31 31 30 30 30 29 30 31 31 32 32 32 31 30 29 29 30 31 32 35 34 36 33 35 35
26 26 28 30 29 28 27 28 30 30 30 31 31 32 32 30 32 32 32 33 33 32 31 33 33 34 34 35 35 35 35 32 31 32 34 34 34 35 36 35 34 33 32
27 28 31 33 30 28 29 29 30 32 31 32 32 34 35 34 32 31 32 32 33 33 33 34 33 34 35 36 37 36 37 35 35 35 35 34 32 33 34 33 33 34 27
26 29 30 32 31 30 32 31 30 32 33 30 29 30 30 30 30 31 32 30 32 34 34 35 37 37 38 39 40 39 38 36 35 36 35 34 28 30 32 35 29 26 26
28 29 29 31 34 34 33 32 31 31 32 33 31 31 33 34 32 33 32 30 31 32 35 37 38 41 43 42 42 40 40 37 38 38 34 31 26 26 27 30 30 24 27
32 34 33 32 34 34 31 29 29 30 31 30 30 30 31 29 28 29 32 31 31 31 36 37 39 42 46 47 46 42 41 36 41 38 32 28 26 26 28 28 28 25 23
34 35 37 37 37 34 32 30 31 30 30 34 36 37 35 32 32 35 34 31 35 34 36 31 34 40 45 45 50 42 38 38 40 35 30 26 22 22 22 25 25 26 18
35 38 50 35 40 37 43 35 35 36 38 46 44 47 47 39 18 19 20 23 22 28 32 32 36 42 42 44 50 46 42 43 40 34 26 23 24 21 23 24 23 22 17
35 36 34 38 42 42 23 19 37 42 48 47 34 15 35 20 18 10 11 18 24 28 29 31 35 32 41 34 41 45 52 53 45 33 25 21 19 18 20 21 20 19 21
47 45 45 42 41 37 40 33 41 45 49 56 61 49 43 43 19 15 17 21 23 29 32 31 29 30 30 25 34 30 29 40 35 31 17 17 18 18 21 22 21 16 16
46 47 47 47 48 46 43 48 47 50 55 50 53 50 46 31 18 21 24 25 31 32 33 31 30 26 20 20 16 18 26 26 16 10 13 17 19 21 23 22 23 20 18
46 43 46 50 53 55 56 54 54 53 56 58 57 57 51 27 26 28 32 34 37 37 32 30 27 24 23 22 19 15 20 15 17 15 18 21 24 25 25 25 25 25 24
55 54 56 56 56 55 56 57 54 56 56 52 53 49 29 27 30 37 39 42 44 38 33 29 29 28 26 24 24 23 23 23 25 25 25 25 27 29 28 29 29 27 26
64 63 60 59 55 56 57 58 57 54 53 49 49 50 56 48 53 52 50 49 45 40 35 35 34 32 31 29 27 26 27 27 30 31 31 31 32 32 34 34 34 35 33
65 64 63 62 57 56 56 54 56 56 57 55 52 51 51 53 56 57 54 51 48 42 40 38 39 38 37 36 36 36 35 34 34 38 41 42 41 41 39 39 40 40 42
54 60 61 59 58 56 54 54 53 52 52 54 53 53 53 51 52 54 55 53 52 49 47 45 43 44 42 44 44 44 44 44 45 48 51 50 48 47 45 44 45 44 44
53 54 54 53 54 54 53 52 51 51 51 52 52 53 54 55 55 56 54 53 53 52 50 49 47 45 46 48 49 50 51 53 53 52 51 53 54 55 53 51 48 48 47
49 50 48 47 47 48 51 51 51 50 50 51 53 54 55 54 54 56 55 53 53 54 55 54 54 54 52 51 53 54 52 54 56 58 58 58 60 60 57 55 54 52 55
43 46 48 49 50 50 51 52 52 53 53 53 53 55 56 56 55 55 55 55 53 53 54 55 55 54 55 56 57 58 58 59 60 59 59 58 59 60 58 58 57 54 56
42 45 48 50 50 50 50 51 52 53 53 53 53 55 55 55 55 56 57 57 56 55 54 55 57 58 58 58 59 59 59 60 59 60 61 61 61 61 61 60 58 59 60
40 42 44 46 47 49 50 50 51 53 53 53 53 55 56 56 56 57 58 59 59 58 58 57 58 60 61 61 63 64 63 62 62 62 62 61 60 59 58 60 60 59 56
47 48 50 51 52 54 56 57 58 59 61 61 62 63 64 64 65 67 67 67 65 66 66 66 64 63 63 62 64 66 67 68 68 66 66 66 65 64 63 63 63 62 60
45 45 47 51 54 55 56 57 59 61 62 64 66 67 67 67 67 70 72 73 75 76 73 72 72 71 70 68 67 67 68 69 70 70 70 70 71 69 67 66 65 64 63

GFSGL_500_spd_258.txt.gz
Wind_Speed
31 30 29 28 28 29 28 26 24 24 25 23 22 20 22 22 24 23 25 25 25 26 25 25 24 25 25 23 24 24 27 27 26 27 29 33 35 35 37 36 37 38 40
29 31 32 32 31 29 28 27 28 26 27 27 27 25 24 25 26 25 27 27 27 25 26 27 28 30 30 29 29 29 29 31 29 28 30 31 32 34 34 34 37 38 40
33 29 30 31 33 32 33 34 34 33 32 32 31 31 30 29 28 29 30 31 31 30 32 31 32 31 31 32 32 31 32 32 33 30 28 30 30 33 34 37 37 37 38
35 35 32 30 30 31 35 38 39 37 37 37 36 37 36 34 33 33 33 34 35 35 34 33 33 32 31 32 33 33 35 34 34 34 31 31 30 32 33 35 34 38 37
39 37 36 35 34 33 32 33 35 35 37 38 38 40 40 39 36 36 37 36 35 36 34 34 34 35 35 35 37 37 37 36 37 36 34 32 32 34 34 34 36 33 36
44 40 41 41 39 37 37 36 38 37 35 35 36 37 39 40 39 39 40 39 38 37 36 36 36 37 37 38 37 38 39 39 39 39 36 34 34 36 38 35 34 34 33
45 44 43 43 44 42 42 43 43 42 41 39 38 39 39 41 43 44 42 40 38 38 38 39 39 38 37 36 36 36 38 40 40 39 38 41 38 40 38 37 34 30 32
39 41 43 41 46 47 44 45 47 45 45 45 44 43 42 42 42 41 40 38 37 38 39 39 38 38 35 34 32 35 39 42 43 41 37 42 47 44 43 35 32 27 27
47 45 46 45 37 46 48 48 46 44 41 42 41 40 39 39 38 39 35 34 34 35 35 35 36 33 32 35 34 34 37 36 38 37 39 40 39 37 36 35 34 28 24
48 48 52 41 48 48 52 48 42 42 40 40 42 43 44 43 39 41 39 37 38 40 38 40 35 34 36 31 32 29 32 34 36 37 41 43 45 42 38 40 29 29 24
60 49 50 48 51 49 46 43 36 41 41 42 44 41 44 35 38 43 42 44 39 36 38 40 35 26 31 23 25 29 30 30 32 32 35 39 38 33 39 39 29 26 28
56 47 49 62 53 36 42 45 35 39 44 48 54 48 46 49 42 43 27 48 39 34 25 20 20 14 17 19 26 26 23 26 25 25 25 28 26 25 29 35 34 31 25
43 60 65 49 51 61 61 57 51 56 47 45 56 44 52 47 41 23 22 11 15 15 19 18 16 16 20 27 28 23 22 23 23 24 26 25 29 21 21 27 28 22 20
55 43 64 50 51 58 51 39 59 47 41 33 28 20 19 19 17 25 28 24 28 27 24 16 24 27 27 23 20 21 24 25 22 22 21 21 20 14 15 17 16 18 24
58 47 53 46 41 35 31 34 50 25 22 23 21 21 22 22 21 20 20 23 24 25 20 21 31 31 30 24 23 24 24 26 26 25 21 20 19 18 19 23 23 22 24
49 41 48 53 43 40 32 22 25 27 29 29 32 33 31 28 28 28 25 22 23 22 24 30 34 34 35 31 28 28 30 32 32 32 28 23 22 22 23 23 24 27 32
30 33 32 36 36 32 36 35 36 33 37 41 40 39 38 38 37 36 35 33 27 27 28 32 37 41 40 38 39 42 43 43 39 37 38 36 32 32 32 34 34 35 37
22 25 28 30 33 31 31 35 39 44 48 45 49 47 40 36 35 34 33 33 34 33 35 38 41 44 46 46 45 45 46 47 45 45 44 43 43 41 40 42 43 43 42
19 21 20 20 23 29 34 34 33 24 30 34 39 37 39 37 36 36 36 37 37 38 41 44 46 48 50 51 50 49 49 49 49 48 48 48 49 49 49 49 50 49 48
18 21 20 19 19 20 23 25 28 31 31 32 33 34 37 34 36 42 41 39 45 47 46 47 49 51 53 54 54 53 54 54 54 53 53 54 55 56 56 57 58 58 59
21 23 24 24 24 25 25 27 28 28 30 31 33 34 37 39 41 42 43 44 45 47 48 49 50 52 53 54 55 55 56 56 57 58 58 58 58 59 59 60 60 62 63
24 24 26 27 28 29 29 31 31 33 33 34 35 37 38 39 42 44 45 47 49 49 50 51 52 53 53 53 55 57 57 58 58 58 58 60 61 63 65 66 66 65 64
26 27 29 31 33 34 36 39 40 40 40 39 40 41 43 45 46 47 48 50 49 50 51 52 54 55 55 55 56 56 58 58 60 61 61 61 62 63 64 66 67 68 68
30 30 32 34 35 38 40 42 43 45 46 47 47 47 48 49 50 50 50 50 51 52 53 54 55 55 56 57 58 58 59 59 59 60 60 62 63 64 65 66 66 67 68
42 42 42 41 41 43 45 47 48 49 50 51 52 53 53 53 54 55 55 54 54 54 55 56 57 58 57 61 61 62 63 63 64 65 64 66 67 68 69 70 69 69 69
48 51 51 50 51 49 48 51 53 52 52 53 53 53 54 55 53 53 54 55 57 57 57 57 57 57 57 57 57 57 57 59 60 60 61 62 63 66 68 70 72 75 76

GFSGL_500_spd_261.txt.gz
Wind_Speed
34 34 33 32 33 35 33 32 30 29 26 25 25 26 24 22 22 22 24 25 26 28 28 28 28 28 27 26 26 27 28 30 28 28 29 31 33 33 35 36 35 34 32
34 37 36 35 34 34 33 33 34 32 31 29 29 28 28 25 24 26 26 26 26 28 29 29 31 29 28 28 28 30 32 34 32 29 30 30 30 33 33 35 35 36 33
38 37 37 38 37 35 34 36 36 35 33 33 32 30 31 31 30 28 30 30 29 30 31 30 32 32 31 32 32 32 33 32 32 31 29 31 32 33 34 36 35 37 36
42 41 38 35 37 39 38 38 38 38 38 37 36 36 36 36 34 33 33 33 34 35 36 36 35 35 36 33 33 33 34 34 35 34 31 32 33 36 34 33 34 38 38
42 43 41 39 39 38 40 41 42 43 42 43 42 40 40 41 39 38 38 39 38 38 37 37 37 37 37 38 36 35 36 35 34 34 34 33 32 36 37 35 34 34 33
44 45 44 45 45 43 41 40 42 41 41 41 40 40 41 40 41 41 41 40 40 40 38 38 39 39 38 37 35 34 35 35 35 34 34 36 36 37 35 32 34 35 32
46 49 50 46 49 48 47 46 44 43 44 41 40 39 38 38 38 39 38 38 38 38 38 39 38 40 41 37 35 34 34 34 35 35 33 38 39 40 37 37 40 36 31
47 44 51 51 53 53 52 51 50 49 47 46 45 43 42 41 38 39 39 39 39 38 38 39 40 40 40 38 35 31 30 32 37 34 39 33 33 34 34 34 30 30 26
56 56 53 52 54 53 53 52 52 52 50 49 46 44 44 42 40 40 40 40 37 35 39 43 42 37 38 37 34 32 31 30 36 40 35 33 33 33 32 31 34 33 28
66 65 54 54 53 52 52 55 50 56 54 52 48 46 45 42 41 41 42 41 38 37 39 40 39 34 36 41 37 34 38 35 35 35 34 34 31 31 31 31 29 26 31
55 61 57 63 58 53 51 51 50 47 48 48 48 48 50 44 40 41 45 37 44 40 47 51 40 34 36 32 39 42 39 31 29 30 31 25 26 28 27 19 21 21 25
50 53 53 52 51 67 56 55 43 56 53 51 53 52 49 43 41 43 38 37 37 23 33 32 34 15 24 21 19 24 25 26 29 31 23 21 22 23 22 22 17 22 24
38 39 50 50 58 68 63 56 49 54 44 42 53 50 51 45 43 42 48 45 34 18 9 13 10 10 19 19 16 22 24 29 31 28 23 20 19 18 18 18 15 13 19
45 43 34 42 57 47 65 60 42 60 58 53 52 41 43 48 21 11 16 9 15 19 8 15 18 15 20 22 23 27 27 29 29 26 22 23 23 19 17 18 16 16 18
36 49 46 43 51 47 34 29 42 52 46 43 37 27 14 14 16 17 14 8 8 12 12 13 15 15 20 27 30 32 31 28 28 27 25 25 26 27 25 21 21 21 22
30 28 39 46 47 43 27 23 28 17 19 19 17 17 12 11 14 18 22 22 21 21 21 20 21 20 25 31 34 37 37 36 37 36 31 30 31 33 33 31 29 28 29
35 31 32 28 29 41 29 42 52 38 37 19 25 30 27 26 24 25 31 33 34 36 39 38 36 34 33 32 37 39 39 40 44 43 42 44 46 43 43 42 42 39 38
33 31 28 30 30 24 20 22 29 26 23 25 32 34 33 33 35 36 39 39 38 38 37 37 36 37 38 40 43 47 49 52 51 48 49 49 50 48 48 48 49 49 49
30 33 34 29 27 25 22 17 17 21 27 18 28 36 38 40 40 42 42 40 40 42 43 44 44 47 49 50 51 53 54 55 56 56 55 55 55 54 52 54 54 55 54
22 23 22 20 20 20 20 20 20 22 28 32 32 35 33 34 34 35 34 35 38 42 40 39 43 45 51 49 53 57 59 61 60 60 59 59 60 60 60 59 60 60 59
22 26 26 25 25 26 26 26 25 26 26 27 30 31 31 31 33 36 38 36 41 41 42 44 46 46 51 53 54 54 55 55 56 57 57 56 57 58 60 61 63 65 65
23 22 21 23 24 24 25 27 28 29 30 30 30 31 32 35 36 36 37 38 40 41 42 43 44 46 48 49 50 51 51 52 54 55 57 57 57 61 62 64 66 66 69
25 26 27 27 28 29 31 32 33 34 34 34 35 36 37 39 40 41 42 42 43 45 47 49 51 53 53 54 55 57 57 58 59 60 61 62 64 66 69 69 70 70 71
29 31 33 35 37 37 38 38 40 41 42 43 43 43 44 45 47 48 48 50 50 49 48 49 51 52 53 55 57 58 59 60 61 62 63 63 65 66 66 68 69 68 68
36 36 37 39 41 42 42 43 44 45 46 47 47 48 48 48 49 50 51 51 52 53 54 55 55 55 55 56 57 58 59 60 61 61 62 62 62 62 64 67 70 71 73
37 39 41 43 44 45 47 49 50 51 52 51 53 55 54 54 55 55 55 54 53 52 53 55 56 57 57 58 59 60 60 61 62 61 61 61 62 63 64 63 63 65 65